Location: Byhalia Creek
(34.8270°N, 89.8040°W)
Time: 20:49:12
(UTC+00:00)

Okean O Rocket - Pass Details

Date: 22 April 2026
Orbit: 613 x 634 km, 98.0° (Epoch: 21 May)

Event Time Altitude Azimuth Distance (km) Brightness Sun altitude
Exits shadow 03:03:34 53° 342° (NNW) 769 2.2 -27.5°
Drops below altitude 10° 03:06:54 10° 347° (NNW) 1,991 4.8 -28.0°
Sets 03:09:05 0° 348° (NNW) 2,898 5.8 -28.3°
